TimeAKDT,TemperatureF,Dew PointF,Humidity,Sea Level PressureIn,VisibilityMPH,Wind Direction,Wind SpeedMPH,Gust SpeedMPH,PrecipitationIn,Events,Conditions,WindDirDegrees,DateUTC
12:55 AM,16.2,12.2,84,30.40,10.0,Calm,Calm,-,N/A,,Overcast,0,2012-10-27 08:55:00
1:55 AM,16.5,12.6,84,30.39,10.0,Calm,Calm,-,N/A,,Overcast,0,2012-10-27 09:55:00
2:55 AM,16.5,12.7,85,30.38,10.0,Calm,Calm,-,N/A,,Overcast,0,2012-10-27 10:55:00
3:55 AM,16.5,12.7,85,30.38,10.0,Calm,Calm,-,N/A,,Overcast,0,2012-10-27 11:55:00
4:55 AM,16.5,12.7,85,30.37,10.0,Calm,Calm,-,N/A,,Overcast,0,2012-10-27 12:55:00
5:55 AM,16.9,13.1,85,30.35,10.0,Calm,Calm,-,N/A,,Overcast,0,2012-10-27 13:55:00
6:27 AM,17.6,12.2,79,30.35,10.0,Calm,Calm,-,N/A,,Overcast,0,2012-10-27 14:27:00
6:34 AM,17.6,14.0,86,30.35,10.0,Calm,Calm,-,N/A,,Overcast,0,2012-10-27 14:34:00
6:55 AM,17.1,13.3,85,30.34,10.0,Calm,Calm,-,N/A,,Overcast,0,2012-10-27 14:55:00
7:55 AM,17.1,13.5,86,30.33,10.0,Calm,Calm,-,N/A,,Overcast,0,2012-10-27 15:55:00
8:55 AM,17.4,13.6,85,30.32,10.0,Calm,Calm,-,N/A,,Overcast,0,2012-10-27 16:55:00
9:41 AM,17.6,14.0,86,30.30,10.0,Calm,Calm,-,N/A,,Overcast,0,2012-10-27 17:41:00
9:55 AM,17.4,13.6,85,30.30,10.0,Calm,Calm,-,N/A,,Overcast,0,2012-10-27 17:55:00
10:55 AM,17.8,13.6,84,30.30,10.0,Calm,Calm,-,N/A,,Overcast,0,2012-10-27 18:55:00
11:55 AM,17.8,14.2,86,30.28,10.0,Calm,Calm,-,N/A,,Mostly Cloudy,0,2012-10-27 19:55:00
12:55 PM,19.2,14.0,80,30.27,10.0,Calm,Calm,-,N/A,,Mostly Cloudy,0,2012-10-27 20:55:00
1:55 PM,20.8,14.7,77,30.26,10.0,Calm,Calm,-,N/A,,Mostly Cloudy,0,2012-10-27 21:55:00
2:55 PM,21.6,15.1,76,30.24,10.0,Calm,Calm,-,N/A,,Mostly Cloudy,0,2012-10-27 22:55:00
3:55 PM,23.2,16.2,75,30.22,10.0,Calm,Calm,-,N/A,,Mostly Cloudy,0,2012-10-27 23:55:00
4:55 PM,22.6,16.0,76,30.20,10.0,Calm,Calm,-,N/A,,Mostly Cloudy,0,2012-10-28 00:55:00
5:55 PM,21.6,16.3,80,30.19,10.0,Calm,Calm,-,N/A,,Mostly Cloudy,0,2012-10-28 01:55:00
6:55 PM,21.0,17.2,85,30.17,10.0,Calm,Calm,-,N/A,,Overcast,0,2012-10-28 02:55:00
7:55 PM,19.6,16.7,89,30.16,10.0,Calm,Calm,-,N/A,,Mostly Cloudy,0,2012-10-28 03:55:00
8:55 PM,18.7,15.8,89,30.16,10.0,Calm,Calm,-,N/A,,Mostly Cloudy,0,2012-10-28 04:55:00
9:55 PM,18.9,16.2,89,30.15,10.0,Calm,Calm,-,N/A,,Mostly Cloudy,0,2012-10-28 05:55:00
10:55 PM,20.1,16.2,85,30.15,10.0,Calm,Calm,-,N/A,,Scattered Clouds,0,2012-10-28 06:55:00
11:55 PM,20.5,15.1,80,30.15,10.0,Calm,Calm,-,N/A,,Overcast,0,2012-10-28 07:55:00